TimePDT,TemperatureF,Dew PointF,Humidity,Sea Level PressureIn,VisibilityMPH,Wind Direction,Wind SpeedMPH,Gust SpeedMPH,PrecipitationIn,Events,Conditions,WindDirDegrees,DateUTC
12:53 AM,50.0,41.0,71,30.06,10.0,WNW,3.5,-,N/A,,Clear,290,2013-06-22 07:53:00
1:53 AM,46.9,41.0,80,30.06,10.0,West,4.6,-,N/A,,Clear,280,2013-06-22 08:53:00
2:53 AM,43.0,39.9,89,30.06,10.0,Calm,Calm,-,N/A,,Clear,0,2013-06-22 09:53:00
3:53 AM,42.1,39.0,89,30.06,10.0,Calm,Calm,-,N/A,,Clear,0,2013-06-22 10:53:00
4:53 AM,39.9,39.0,97,30.06,10.0,Calm,Calm,-,N/A,,Clear,0,2013-06-22 11:53:00
5:53 AM,39.9,37.9,93,30.06,10.0,Calm,Calm,-,N/A,,Clear,0,2013-06-22 12:53:00
6:53 AM,45.0,41.0,86,30.06,10.0,Calm,Calm,-,N/A,,Clear,0,2013-06-22 13:53:00
7:53 AM,52.0,42.1,69,30.05,10.0,Calm,Calm,-,N/A,,Clear,0,2013-06-22 14:53:00
8:53 AM,55.9,41.0,57,30.04,10.0,Calm,Calm,-,N/A,,Clear,0,2013-06-22 15:53:00
9:53 AM,57.9,39.9,51,30.04,10.0,Variable,3.5,-,N/A,,Clear,0,2013-06-22 16:53:00
10:53 AM,63.0,39.0,41,30.02,10.0,Variable,4.6,-,N/A,,Clear,0,2013-06-22 17:53:00
11:53 AM,66.0,39.9,38,30.01,10.0,Calm,Calm,-,N/A,,Clear,0,2013-06-22 18:53:00
12:53 PM,68.0,39.0,35,29.99,10.0,Variable,3.5,-,N/A,,Clear,0,2013-06-22 19:53:00
1:53 PM,69.1,37.9,32,29.97,10.0,Calm,Calm,-,N/A,,Clear,0,2013-06-22 20:53:00
2:53 PM,73.9,39.0,28,29.94,10.0,Variable,4.6,-,N/A,,Partly Cloudy,0,2013-06-22 21:53:00
3:53 PM,73.9,37.9,27,29.92,10.0,NNW,4.6,-,N/A,,Partly Cloudy,340,2013-06-22 22:53:00
4:53 PM,75.0,37.9,26,29.90,10.0,WSW,3.5,-,N/A,,Scattered Clouds,240,2013-06-22 23:53:00
5:53 PM,75.9,37.9,25,29.88,10.0,West,12.7,-,N/A,,Mostly Cloudy,270,2013-06-23 00:53:00
6:53 PM,73.0,37.9,28,29.88,10.0,NW,11.5,-,N/A,,Clear,320,2013-06-23 01:53:00
7:53 PM,70.0,33.1,26,29.87,10.0,NNW,13.8,-,N/A,,Scattered Clouds,340,2013-06-23 02:53:00
8:53 PM,66.9,35.1,31,29.86,8.0,NNW,11.5,-,N/A,,Overcast,340,2013-06-23 03:53:00
9:53 PM,64.9,39.0,39,29.88,9.0,WNW,5.8,-,N/A,,Mostly Cloudy,300,2013-06-23 04:53:00
10:53 PM,64.0,42.1,45,29.86,10.0,NNW,8.1,-,N/A,,Partly Cloudy,330,2013-06-23 05:53:00
11:53 PM,62.1,42.1,48,29.85,10.0,NW,4.6,-,N/A,,Mostly Cloudy,310,2013-06-23 06:53:00